Find SBIRS GEO-4

NORAD ID: 41937 Int'l Des: 2017-004 Owner: AFSPC Country: US operational
HEOCIRCULARGSO

現在のビュー

3D地球を読み込み中...

About SBIRS GEO-4

SBIRS GEO-4 (NORAD 41937) is a satellite launched Jan 21, 2017 by AFSPC of US. It operates in HEO, CIRCULAR, GSO orbit with a mass of 4500.00 kg.

次回通過

Passes for default location (London). Set your location on the main map for personalized predictions.

高度履歴

Loading altitude history...

軌道要素

1 41937U 17004A 26194.82406007 .00000121 00000-0 00000+0 0 9998
2 41937 2.2931 43.9531 0002517 66.7750 139.2341 1.00282404 34869
Epoch: Jul 13, 2026 • Age: 7 hours

現在のステータス

高度 35786.7 km
遠地点 / 近地点 N/A
速度 3.07 km/s
衛星直下点 -1.54°S, 21.62°E
打ち上げ日 Jan 21, 2017
運用期間 9.4 years
タイプ military

技術仕様

分類 Payload
質量 4500.00 kg
乾燥質量 2500.00 kg
総質量 4500.00 kg
長さ 6.00 m
直径 2.50 m
スパン 25.00 m
形状 Box + 2 Pan
製造者 LMSS
バスタイプ A2100
フェーズステータス In Orbit
所有者/国 AFSPC/US

Most Searched